Regional Weather Roundup
Issued by NWS Newport/Morehead, NC

Current Version | Previous Version | Text Only | Print | Product List | Glossary Off
Versions: 1 2 3 4 5 6 7 8 9 10 11 12 13 14 15 16 17 18 19 20 21 22 23 24 25 26 27 28 29 30 31 32 33 34 35 36 37 38 39 40 41 42 43 44 45 46 47 48 49 50
000 ASUS42 KMHX 230210 RWRMHX WEATHER ROUNDUP FOR EASTERN NORTH CAROLINA NATIONAL WEATHER SERVICE NEWPORT/MOREHEAD CITY NC 1000 PM EDT WED OCT 22 2014 NOTE: "FAIR" INDICATES FEW OR NO CLOUDS BELOW 12,000 FEET WITH NO SIGNIFICANT WEATHER AND/OR OBSTRUCTIONS TO VISIBILITY NCZ015>017-031-032-045>047-102-103-230300- NORTH COAST CITY SKY/WX TMP DP RH WIND PRES REMARKS EDENTON CLOUDY 56 49 75 NW13G22 29.94S ELIZABETH CITY CLOUDY 58 49 72 NW17 29.91R KITTY HAWK MOCLDY 56 51 80 NW13G25 29.87R MANTEO CLOUDY 57 50 78 NW17G25 29.89S $$ NCZ045>047-081-094-103-104-230300- CENTRAL COAST CITY SKY/WX TMP DP RH WIND PRES REMARKS FRISCO CLOUDY 58 50 75 NW16G28 29.90R SWANQUARTER N/A 57 N/A N/A NW9G16 29.91R $$ NCZ095-097-098-100-101-230300- SOUTHERN COAST CITY SKY/WX TMP DP RH WIND PRES REMARKS BEAUFORT MOCLDY 58 49 72 NW18 29.97R CEDAR ISLAND N/A 59 N/A N/A NW18G32 29.97S JACKSONVILLE CLOUDY 56 46 69 W9 29.98R PINEY ISLAND MOCLDY 61 48 62 NW16G26 29.95R WILMINGTON CLEAR 56 46 69 NW7 30.01R $$ NCZ011>013-027>030-043-044-078>080-089-090>093-098-230300- COASTAL PLAIN CITY SKY/WX TMP DP RH WIND PRES REMARKS AHOSKIE CLOUDY 55 47 74 CALM 29.97S CLINTON CLEAR 56 45 65 NW6 30.02R ELIZABETHTOWN CLEAR 56 45 65 NW5 30.03R GOLDSBORO CLOUDY 59 48 67 W6 29.99R GREENVILLE PTCLDY 55 46 71 N3 30.00S HAVELOCK MOCLDY 59 47 64 NW16G24 29.98R KENANSVILLE CLEAR 54 43 66 W3 30.01R KINSTON NOT AVBL NEW BERN CLOUDY 60 48 64 NW9 29.99R RICHLANDS CLOUDY 55 45 67 CALM 30.00R ROCKY MOUNT MOCLDY 57 47 69 NW8 30.00R WASHINGTON MOCLDY 55 47 74 NW5 29.97S WHITEVILLE CLEAR 54 46 75 CALM 30.03R $$ AMZ130-135-150-152-154-156-158-170-250-252-270-ANZ085-086-088-633-658-670-230300- MARINE OBSERVATIONS STATION/POSITION TIME TEMP WIND PRES WAVE SWELL AIR SEA DIR/SP/G HT/PER HT/PER (UTC) (F) (DEG/KT/KT) (MB) (FT/S) (FT/S) CHESAPEAKE LIGHT 0100 58 340/ 32/ 37 1010.4 64 E VA BEACH 0200 61 69 330/ 29/ 35 1007.3 10/ 7 2/11 DUCK 0200 57 68 310/ 21/ 27 1010.6 2 E DUCK 0100 N/A 4/ 6 10 NE DUCK 0200 70 N/A 7/ 6 2/11 OREGON INLET 0200 58 64 300/ 18/ 28 1011.3 13E OREGON INLT 0200 72 N/A 8/ 7 2/11 HATTERAS CG 0200 60 67 320/ 24/ 29 1013.0 DIAMOND BUOY 0200 61 310/ 25/ 31 1011.8 6/ 6 2/10 17 S OCRACOKE NOT AVBL CAPE LOOKOUT 0100 61 320/ 14/ 18 1014.0 BEAUFORT LAB 0200 59 68 340/ 12/ 17 1014.3 30 SE NEW RIVER 0200 66 76 320/ 21/ 31 1014.2 3/ 4 5 SE WRIGHTSVLE 0200 60 72 330/ 19/ 21 N/A 225 S CAPE HAT 0103 70 78 320/ 17/ 21 1014.2 7/ 7 2/11 41 SE CHARLESTON 0200 67 78 330/ 14/ 17 1016.8 4/ 6 2/10 $$

USA.gov is the U.S. government's official web portal to all federal, state and local government web resources and services.